Weather History for Pipestone, MN

Change the Weather History Date:

Wednesday, March 20, 2013

  Actual Average Record
Temperature  
Mean Temperature 12 °F -  
Max Temperature 19 °F 38 °F 55 °F (2009)
Min Temperature 5 °F 22 °F 3 °F (2002)
Degree Days  
Heating Degree Days 53    
Moisture  
Dew Point 4 °F    
Average Humidity 70    
Maximum Humidity 85    
Minimum Humidity 53    
Precipitation  
Precipitation 0.00 in - - ()
Sea Level Pressure  
Sea Level Pressure 30.22 in    
Wind  
Wind Speed 13 mph (NNW)    
Max Wind Speed 18 mph    
Max Gust Speed 25 mph    
Visibility 10 miles    
Events      
Averages and records for this station are not official NWS values.
T = Trace of Precipitation, MM = Missing Value Source: NWS Daily Summary

Daily Weather History Graph

Daily Weather History Graph

Search for Another Location

Airport:

Trip Planner

Search our weather history database for the weather conditions in past years. The results will help you decide how hot, cold, wet, or windy it might be!

Date:

Astronomy

Mar. 20, 2013 Rise Set
Actual Time 7:27 AM CDT 7:37 PM CDT
Civil Twilight 6:59 AM CDT 8:06 PM CDT
Nautical Twilight 6:25 AM CDT 8:40 PM CDT
Astronomical Twilight 5:50 AM CDT 9:15 PM CDT
Moon 1:03 PM CDT (3/20) 3:19 AM CDT (3/20)
Length of Visible Light 13h 07m
Length of Day
12h 10m
First Quarter, 59% of the Moon is Illuminated
Mar 20
First Quarter
Mar 27
Full
Apr 2
Last Quarter
Apr 10
New
Apr 18
First Quarter

Hourly Weather History & Observations

Time (CDT) Temp. Windchill Dew Point Humidity Pressure Visibility Wind Dir Wind Speed Gust Speed Precip Events Conditions
12:33 AM 10.4 °F -7.7 °F 3.2 °F 73% 30.28 in 10.0 mi NNW 18.4 mph 25.3 mph N/A   Scattered Clouds
12:53 AM 8.6 °F -8.3 °F 3.2 °F 79% 30.29 in 10.0 mi NNW 15.0 mph 19.6 mph N/A   Mostly Cloudy
1:13 AM 8.6 °F -10.0 °F 3.2 °F 79% 30.28 in 10.0 mi NNW 18.4 mph 23.0 mph N/A   Scattered Clouds
1:33 AM 8.6 °F -7.0 °F 3.2 °F 79% 30.28 in 10.0 mi NNW 12.7 mph 19.6 mph N/A   Clear
1:54 AM 8.6 °F -7.0 °F 3.2 °F 79% 30.29 in 10.0 mi NNW 12.7 mph 19.6 mph N/A   Clear
2:13 AM 8.6 °F -9.5 °F 3.2 °F 79% 30.29 in 10.0 mi NNW 17.3 mph - N/A   Clear
2:33 AM 8.6 °F -9.5 °F 3.2 °F 79% 30.29 in 10.0 mi NNW 17.3 mph 24.2 mph N/A   Clear
2:53 AM 8.6 °F -8.3 °F 3.2 °F 79% 30.29 in 10.0 mi NNW 15.0 mph 23.0 mph N/A   Clear
3:13 AM 6.8 °F -9.3 °F 3.2 °F 85% 30.29 in 10.0 mi NNW 12.7 mph 19.6 mph N/A   Clear
3:33 AM 6.8 °F -9.3 °F 1.4 °F 79% 30.29 in 10.0 mi NNW 12.7 mph - N/A   Clear
3:53 AM 6.8 °F -11.3 °F 1.4 °F 79% 30.29 in 10.0 mi NNW 16.1 mph 23.0 mph N/A   Clear
4:13 AM 6.8 °F -10.0 °F 1.4 °F 79% 30.29 in 10.0 mi NNW 13.8 mph 17.3 mph N/A   Clear
4:33 AM 6.8 °F -9.3 °F 1.4 °F 79% 30.29 in 10.0 mi NNW 12.7 mph 18.4 mph N/A   Clear
4:53 AM 6.8 °F -9.3 °F 1.4 °F 79% 30.29 in 10.0 mi NNW 12.7 mph - N/A   Clear
5:13 AM 6.8 °F -9.3 °F 1.4 °F 79% 30.29 in 10.0 mi NW 12.7 mph 21.9 mph N/A   Clear
5:53 AM 6.8 °F -9.3 °F 1.4 °F 79% 30.29 in 10.0 mi NW 12.7 mph - N/A   Clear
6:13 AM 6.8 °F -9.3 °F 1.4 °F 79% 30.30 in 10.0 mi NW 12.7 mph - N/A   Clear
6:34 AM 5.0 °F -10.8 °F 1.4 °F 85% 30.30 in 10.0 mi NW 11.5 mph 18.4 mph N/A   Clear
6:53 AM 5.0 °F -12.3 °F 1.4 °F 85% 30.30 in 10.0 mi NW 13.8 mph - N/A   Clear
7:13 AM 5.0 °F -13.0 °F -0.4 °F 78% 30.30 in 10.0 mi NNW 15.0 mph - N/A   Clear
7:33 AM 5.0 °F -10.0 °F -0.4 °F 78% 30.30 in 10.0 mi NNW 10.4 mph - N/A   Clear
7:53 AM 5.0 °F -11.6 °F -0.4 °F 78% 30.30 in 10.0 mi NW 12.7 mph - N/A   Clear
8:13 AM 5.0 °F -11.6 °F -0.4 °F 78% 30.30 in 10.0 mi NNW 12.7 mph 17.3 mph N/A   Clear
8:33 AM 5.0 °F -13.0 °F -0.4 °F 78% 30.29 in 10.0 mi NNW 15.0 mph - N/A   Clear
8:53 AM 6.8 °F -8.6 °F 1.4 °F 79% 30.28 in 10.0 mi NW 11.5 mph - N/A   Clear
9:14 AM 8.6 °F -6.3 °F 1.4 °F 73% 30.28 in 10.0 mi NNW 11.5 mph 19.6 mph N/A   Clear
9:33 AM 8.6 °F -7.7 °F 1.4 °F 73% 30.28 in 10.0 mi NNW 13.8 mph 23.0 mph N/A   Clear
9:53 AM 10.4 °F -6.0 °F 1.4 °F 67% 30.28 in 10.0 mi NNW 15.0 mph 23.0 mph N/A   Clear
10:13 AM 10.4 °F -7.7 °F 1.4 °F 67% 30.28 in 10.0 mi NNW 18.4 mph 24.2 mph N/A   Clear
10:33 AM 10.4 °F -6.6 °F 3.2 °F 73% 30.28 in 10.0 mi NNW 16.1 mph 21.9 mph N/A   Clear
10:53 AM 12.2 °F -4.8 °F 3.2 °F 67% 30.28 in 10.0 mi NNW 17.3 mph 21.9 mph N/A   Clear
11:13 AM 12.2 °F -3.7 °F 3.2 °F 67% 30.28 in 10.0 mi NNW 15.0 mph - N/A   Clear
11:33 AM 14.0 °F -0.8 °F 3.2 °F 62% 30.28 in 10.0 mi NNW 13.8 mph 20.7 mph N/A   Clear
11:53 AM 14.0 °F 0.5 °F 3.2 °F 62% 30.27 in 10.0 mi North 11.5 mph 21.9 mph N/A   Clear
12:12 PM 15.8 °F 0.3 °F 3.2 °F 58% 30.27 in 10.0 mi NNW 16.1 mph 20.7 mph N/A   Clear
12:53 PM 15.8 °F 0.9 °F 3.2 °F 58% 30.25 in 10.0 mi NNW 15.0 mph 20.7 mph N/A   Clear
1:13 PM 17.6 °F 3.7 °F 5.0 °F 58% 30.25 in 10.0 mi NW 13.8 mph 19.6 mph N/A   Clear
1:33 PM 17.6 °F 5.7 °F 5.0 °F 58% 30.24 in 10.0 mi NNW 10.4 mph 21.9 mph N/A   Clear
1:53 PM 17.6 °F 2.2 °F 3.2 °F 53% 30.24 in 10.0 mi North 17.3 mph 23.0 mph N/A   Clear
2:13 PM 17.6 °F 4.3 °F 5.0 °F 58% 30.22 in 10.0 mi NW 12.7 mph 23.0 mph N/A   Scattered Clouds
2:33 PM 17.6 °F 2.7 °F 5.0 °F 58% 30.21 in 10.0 mi NNW 16.1 mph 23.0 mph N/A   Scattered Clouds
2:53 PM 17.6 °F 4.3 °F 6.8 °F 63% 30.20 in 10.0 mi North 12.7 mph 21.9 mph N/A   Clear
3:13 PM 19.4 °F 6.0 °F 5.0 °F 54% 30.19 in 10.0 mi NNW 13.8 mph 19.6 mph N/A   Clear
3:33 PM 17.6 °F 4.3 °F 6.8 °F 63% 30.18 in 10.0 mi North 12.7 mph 20.7 mph N/A   Clear
3:53 PM 19.4 °F 6.0 °F 6.8 °F 58% 30.18 in 10.0 mi NNW 13.8 mph 21.9 mph N/A   Clear
4:13 PM 19.4 °F 5.0 °F 5.0 °F 54% 30.18 in 10.0 mi North 16.1 mph 24.2 mph N/A   Clear
4:33 PM 19.4 °F 6.0 °F 5.0 °F 54% 30.17 in 10.0 mi NNW 13.8 mph 21.9 mph N/A   Clear
4:54 PM 19.4 °F 6.0 °F 6.8 °F 58% 30.16 in 10.0 mi North 13.8 mph 24.2 mph N/A   Clear
5:13 PM 19.4 °F 6.6 °F 6.8 °F 58% 30.17 in 10.0 mi North 12.7 mph 18.4 mph N/A   Clear
5:33 PM 17.6 °F 5.0 °F 5.0 °F 58% 30.17 in 10.0 mi NNW 11.5 mph 20.7 mph N/A   Clear
5:54 PM 19.4 °F 6.6 °F 6.8 °F 58% 30.15 in 10.0 mi NW 12.7 mph 17.3 mph N/A   Clear
6:13 PM 19.4 °F 9.5 °F 6.8 °F 58% 30.15 in 10.0 mi North 8.1 mph 16.1 mph N/A   Clear
6:33 PM 17.6 °F 7.3 °F 5.0 °F 58% 30.14 in 10.0 mi North 8.1 mph - N/A   Clear
6:53 PM 17.6 °F 6.4 °F 6.8 °F 63% 30.14 in 10.0 mi North 9.2 mph 16.1 mph N/A   Clear
7:13 PM 17.6 °F 8.2 °F 6.8 °F 63% 30.14 in 10.0 mi North 6.9 mph - N/A   Clear
7:33 PM 15.8 °F 5.1 °F 5.0 °F 62% 30.14 in 10.0 mi North 8.1 mph - N/A   Clear
7:53 PM 15.8 °F 6.1 °F 6.8 °F 68% 30.13 in 10.0 mi North 6.9 mph - N/A   Clear
8:13 PM 15.8 °F 7.2 °F 5.0 °F 62% 30.13 in 10.0 mi North 5.8 mph - N/A   Clear
8:33 PM 14.0 °F 5.1 °F 5.0 °F 67% 30.13 in 10.0 mi North 5.8 mph - N/A   Clear
8:53 PM 14.0 °F 5.1 °F 5.0 °F 67% 30.12 in 10.0 mi North 5.8 mph - N/A   Clear
9:13 PM 14.0 °F 6.5 °F 5.0 °F 67% 30.12 in 10.0 mi North 4.6 mph - N/A   Clear
9:34 PM 12.2 °F 6.1 °F 5.0 °F 73% 30.12 in 10.0 mi North 3.5 mph - N/A   Clear
9:53 PM 12.2 °F 1.7 °F 5.0 °F 73% 30.12 in 10.0 mi NNW 6.9 mph - N/A   Clear
10:13 PM 12.2 °F - 5.0 °F 73% 30.11 in 10.0 mi Calm Calm - N/A   Clear
10:33 PM 12.2 °F - 5.0 °F 73% 30.12 in 10.0 mi Calm Calm - N/A   Clear
10:53 PM 10.4 °F 2.2 °F 6.8 °F 85% 30.11 in 10.0 mi NE 4.6 mph - N/A   Clear
11:12 PM 10.4 °F -1.5 °F 5.0 °F 79% 30.11 in 10.0 mi NNE 8.1 mph - N/A   Clear
11:33 PM 10.4 °F -0.4 °F 5.0 °F 79% 30.10 in 10.0 mi NE 6.9 mph - N/A   Clear
11:53 PM 10.4 °F 2.2 °F 3.2 °F 73% 30.10 in 10.0 mi NE 4.6 mph - N/A   Clear